Location: Carthage
(33.8834°N, 106.6595°W)
Time: 10:36:41
(UTC+00:00)

Cosmos 1980 Rocket - Pass Details

Date: 13 February 2026
Orbit: 828 x 849 km, 71.0° (Epoch: 10 March)

Event Time Altitude Azimuth Distance (km) Brightness Sun altitude
Exits shadow 12:59:37 12° 254° (WSW) 2,253 3.9 -11.7°
Maximum altitude 13:03:18 23° 301° (WNW) 1,704 3.3 -10.9°
Drops below altitude 10° 13:07:39 10° 352° (N) 2,437 4.4 -10.0°
Sets 13:10:37 0° 7° (N) 3,375 5.3 -9.4°
